Regional Weather Roundup
Issued by NWS

Home | Current Version | Previous Version | Text Only | Print | Product List | Glossary Off
Versions: 1 2 3 4 5 6 7 8 9 10 11 12 13 14 15 16 17 18 19 20 21 22 23 24 25 26 27 28 29 30 31 32 33 34 35 36 37 38 39 40 41 42 43 44 45 46 47 48 49 50

000
ASUS43 KIND 241909
RWRIN

WEATHER ROUNDUP FOR INDIANA
NATIONAL WEATHER SERVICE INDIANAPOLIS IN
300 PM EDT THU APR 24 2014

NOTE: "FAIR" INDICATES FEW OR NO CLOUDS BELOW 12,000 FEET WITH NO
SIGNIFICANT WEATHER AND/OR OBSTRUCTIONS TO VISIBILITY.

* - STATION DOES NOT REPORT WEATHER SUCH AS PRECIPITATION OR FOG.

+ - STATION NOT QUALITY CONTROLLED BY THE NATIONAL WEATHER SERVICE.
    USE DATA WITH CAUTION...ESPECIALLY DEWPOINT AND RELATIVE
    HUMIDITY OBSERVATIONS.

INZ001>003-010>013-019-020-242000-
NORTHWEST INDIANA

CITY           SKY/WX    TMP DP  RH WIND       PRES   REMARKS
GARY /AIRPORT/ CLOUDY    63  30  29 SE17G31   29.87F
LA PORTE +     CLOUDY    58  22  25 SE13      29.92F
MICHIGAN CITY+ CLOUDY    59  21  23 SE12G24   29.91F
MONTICELLO +   CLOUDY    60  32  34 SE9G20    29.91F
RENSSELAER +   CLOUDY    61  28  29 SE20G25   29.89F
VALPARAISO     CLOUDY    60  25  26 SE20G31   29.90F

$$

LMZ046-743>745-242000-
SOUTHERN LAKE MICHIGAN

STATION/POSITION TIME  TEMP WIND        PRES
                       AIR  DIR/SP/G
                 (UTC) (F)  (DEG/KT/KT) (MB)
MICHIGAN CITY    1900   58  110/ 17/ 24   N/A

$$

INZ004-005-014>016-021>024-242000-
NORTH CENTRAL INDIANA

CITY           SKY/WX    TMP DP  RH WIND       PRES   REMARKS
GOSHEN         CLOUDY    59  23  25 E18G29    29.96F
LOGANSPORT +   CLOUDY    59  27  29 SE18G25   29.93F
PERU/GRISSOM   CLOUDY    61  27  28 SE18G25   29.93F
ROCHESTER +    CLOUDY    63  23  22 SE18      29.94F
SOUTH BEND     CLOUDY    59  22  24 SE23G30   29.95F
WARSAW +       CLOUDY    59  23  25 SE16G23   29.96F

$$

INZ006>009-017-018-025>027-242000-
NORTHEAST INDIANA

CITY           SKY/WX    TMP DP  RH WIND       PRES   REMARKS
ANGOLA *+      MOSUNNY   55  23  28 SE16      30.01F
AUBURN +       PTSUNNY   59  21  23 E14       30.01F
FORT WAYNE     CLOUDY    59  20  22 E18       29.99F

$$

INZ028-029-035-036-043>045-051>053-242000-
WEST CENTRAL INDIANA

CITY           SKY/WX    TMP DP  RH WIND       PRES   REMARKS
GREENCASTLE +  PTSUNNY   64  39  39 SE12G20   29.90F
LAFAYETTE      CLOUDY    62  34  35 SE20G28   29.89F
TERRE HAUTE    MOSUNNY   68  38  33 S16       29.88F

$$

INZ030>032-037>040-046>048-054>057-064-065-242000-
CENTRAL INDIANA

CITY           SKY/WX    TMP DP  RH WIND       PRES   REMARKS
CP ATTERBURY + PTSUNNY   64  36  34 SE8G20    29.93F
GREENWOOD *+   CLOUDY    63  36  36 SE12      29.93
INDIANAPOLIS   CLOUDY    61  37  41 SE15      29.91F
-EAGLE CREEK   CLOUDY    61  34  36 SE13      29.92F
KOKOMO *+      CLOUDY    61  28  29 SE18G24   29.94F
MARION +       CLOUDY    60  21  21 SE18      29.96F
MT COMFORT *+  CLOUDY    61  32  33 SE13      29.94F
SHELBYVILLE    PTSUNNY   67  34  29 SE15      29.93F
ZIONSVILLE +   CLOUDY    60  30  31 SE12      29.93F

$$

INZ033-034-041-042-049-050-058-059-242000-
EAST CENTRAL INDIANA

CITY           SKY/WX    TMP DP  RH WIND       PRES   REMARKS
MUNCIE         CLOUDY    61  22  22 SE15      29.96F

$$

INZ060-061-067>069-081>083-085>088-242000-
SOUTHWEST INDIANA

CITY           SKY/WX    TMP DP  RH WIND       PRES   REMARKS
EVANSVILLE     MOSUNNY   73  36  25 S6        29.87F
HUNTINGBURG *+ SUNNY     72  39  30 S10       29.89F
WASHINGTON +   SUNNY     71  39  30 S14       29.87F

$$

INZ062-063-066-070>080-084-089>092-242000-
SOUTH CENTRAL AND SOUTHEAST INDIANA

CITY           SKY/WX    TMP DP  RH WIND       PRES   REMARKS
BLOOMINGTON    MOSUNNY   67  35  30 S13G20    29.91F
SEYMOUR +      MOSUNNY   63  19  19 SE12G18   29.92

$$




USA.gov is the U.S. government's official web portal to all federal, state and local government web resources and services.